Tracking 20241 objects as of 28-Jan-2020
HD Live streaming from Space Station
objects crossing your sky now

DSAT

Track DSAT now!
10-day predictions
DSAT is classified as:


NORAD ID: 42794
Int'l Code: 2017-036AF
Perigee: 512.2 km
Apogee: 690.4 km
Inclination: 97.5 °
Period: 96.6 minutes
Semi major axis: 6972 km
RCS: Unknown
Launch date: June 23, 2017
Source: Italy (IT)
Launch site: SRIHARIKOTA (SRI)

Uplink (MHz):
Downlink (MHz): 437.505
Beacon (MHz): 437.505
Mode: 4800bps GMSK CW
Call sign: U1-DSAT-U1
Status: Inactive

aabbcc
Your satellite tracking list
Your tracking list is empty




NASA's NSSDC Master Catalog

Two Line Element Set (TLE):
1 42794U 17036AF  20028.53299528 +.00000238 +00000-0 +25727-4 0  9998
2 42794 097.5120 068.0274 0127736 115.0414 246.4130 14.91208532141697
Source of the keplerian elements: AMSAT